Location: ??
(35.6755°N, 139.6666°E)
Time: 19:28:07
(UTC+00:00)

Daily predictions for brighter satellites

Satellite Brightness Start Highest point End
(mag) Time Altitude Azimuth Time Altitude Azimuth Time Altitude Azimuth
ADEOS Rocket 4.1 18:45:16 10° S 18:48:10 32° S 18:48:10 32° S
Milstar 3 Cent rocket 3.8 18:59:49 34° SSW 19:02:42 48° SSE 19:15:36 10° E
ERS-2 4.1 19:00:44 10° SE 19:03:47 27° ENE 19:03:47 27° ENE
SL-8 R/B 4.3 19:04:31 52° ENE 19:04:31 52° ENE 19:08:41 10° ESE
Cosmos 2151 4.2 19:03:58 10° SSE 19:07:53 40° E 19:11:49 10° NNE
SL-4 R/B 4.2 19:12:01 18° NNE 19:12:01 18° NNE 19:13:05 10° NE
CZ-4B R/B 3.7 19:08:12 10° SE 19:09:55 23° ESE 19:09:55 23° ESE
ADEOS 3.6 19:11:08 10° NNE 19:16:23 78° ESE 19:21:36 10° S
SL-16 R/B 2.0 19:16:10 69° NW 19:16:52 82° WSW 19:22:31 10° SSE
Cosmos 389 Rocket 3.9 19:18:11 35° ENE 19:18:13 35° ENE 19:21:26 10° SSE
OAO 3 Rocket 3.1 19:19:45 79° SE 19:19:45 79° SE 19:24:16 10° E
Cosmos 1606 4.4 19:17:33 18° NNE 19:19:48 32° ENE 19:23:14 10° SE
ATLAS 2AS CENTAUR R/B 4.0 19:15:52 10° S 19:23:18 48° ESE 19:30:49 10° NE
SJ 16-02 3.6 19:20:20 10° SSE 19:23:54 25° E 19:27:31 10° NE
Meteor 1-31 Rocket 3.0 19:20:58 10° NNE 19:24:48 66° E 19:28:35 10° S
COSMO-SKYMED 1 4.3 19:22:15 10° SE 19:26:05 31° ENE 19:29:56 10° N
USA 234 3.4 19:21:49 10° NE 19:28:21 72° SE 19:34:52 10° SW
CENTAUR R/B 4.1 19:21:38 11° NNW 19:29:11 45° NE 19:37:33 10° ESE
GPS 2-04 Rocket1 4.3 19:31:38 24° S 19:32:39 27° SSE 19:35:53 10° E
Cosmos 1777 Rocket 3.8 19:27:56 10° SSW 19:33:07 78° WNW 19:38:20 10° NNE
Lacrosse 5 3.5 19:28:44 10° S 19:33:15 33° ESE 19:37:47 10° ENE
Cosmos 1745 Rocket 3.9 19:27:30 10° SSW 19:33:40 63° W 19:39:55 10° N
CZ-4B R/B 4.0 19:32:22 10° NNE 19:36:46 50° E 19:41:03 10° S
CZ-3 R/B 4.5 19:22:46 28° W 19:36:51 39° SW 19:47:39 10° SSE
Cosmos 1441 Rocket 3.3 19:34:07 10° S 19:37:55 71° E 19:41:42 10° NNE
NOSS 3-2 (A) 4.3 19:32:27 17° NNW 19:38:54 72° ENE 19:47:31 10° SE
METEOR-M 4.0 19:37:14 10° N 19:42:33 68° WNW 19:47:50 10° SSW
Cosmos 2263 Rocket 2.1 19:46:18 10° SSW 19:51:55 70° WNW 19:57:37 10° NNE
USA 238 DEB 4.0 19:46:29 14° NNW 19:53:01 76° ENE 20:00:36 10° SE
USA 238 4.0 19:46:33 14° NNW 19:53:07 75° ENE 20:00:41 10° SE
ALOS 2.8 19:49:11 10° N 19:56:49 15° SW 19:57:43 10° SW
Cosmos 1709 Rocket 3.9 19:53:17 10° SSW 19:59:36 71° W 20:05:59 10° N
USA 276 1.9 20:00:02 56° WNW 20:00:36 84° SW 20:03:45 10° SE
OAO 2 Rocket 4.1 19:57:28 17° SW 20:01:11 50° SSE 20:06:10 10° E
SJ-12 3.9 20:00:52 10° N 20:04:50 55° WNW 20:08:47 10° SSW
Meteor 1-4 Rocket 4.3 20:02:25 10° NNE 20:05:33 31° ENE 20:08:38 10° SE
ERBS 4.1 20:07:09 18° NNW 20:07:09 18° NNW 20:08:41 10° N
Cosmos 1603 3.9 20:05:40 10° NNW 20:11:17 72° ENE 20:16:53 10° SSE
deb Chang Zheng 4 4.2 20:08:52 10° N 20:12:45 33° WNW 20:16:39 10° SW
SKYMED 2 3.5 20:09:43 10° S 20:14:01 69° WSW 20:18:22 10° NNW
Atlas Centaur 2 3.6 20:12:19 10° SW 20:17:05 27° SSE 20:21:02 10° ESE
Cosmos 2084 4.5 20:13:09 10° NNW 20:17:29 46° NE 20:21:49 10° SE
H-2A R/B 2.8 20:16:16 10° NNE 20:20:12 86° ESE 20:24:05 10° S
H-2A R/B 3.6 20:17:58 10° NNE 20:21:40 43° E 20:25:18 10° S
Cosmos 1943 3.3 20:17:44 10° NNW 20:23:28 80° ENE 20:29:09 10° SSE
Delta 2 Rocket 3.6 20:20:57 19° W 20:24:13 68° SSW 20:28:22 10° ESE
SAR-Lupe-4 4.0 20:21:43 10° S 20:25:04 39° W 20:28:27 10° NNW
Cosmos 1633 2.9 20:22:49 10° SSW 20:26:07 38° W 20:29:27 10° N
Cosmos 2074 Rocket 4.3 20:20:48 10° S 20:26:58 72° E 20:33:09 10° N
Envisat 3.5 20:22:05 10° NNE 20:27:08 64° E 20:32:09 10° S
Okean O Rocket 3.8 20:24:16 10° NE 20:28:12 30° E 20:32:05 10° SSE
Cosmos 1689 Rocket 2.4 20:28:21 10° S 20:31:05 41° W 20:33:49 10° NNW
Cosmos 1933 3.5 20:27:50 10° NNW 20:31:49 51° W 20:35:46 10° S
ASTRO E2 3.5 20:30:35 12° WSW 20:34:07 45° S 20:37:55 10° ESE
YAOGAN 6 2.8 20:30:41 10° NNE 20:34:12 70° E 20:37:38 10° S
ERS-2 3.8 20:35:12 10° SW 20:37:21 15° W 20:38:22 14° WNW
Cosmos 2184 Rocket 4.1 20:31:56 10° S 20:38:12 85° E 20:44:33 10° N
SJ-7 4.3 20:34:52 10° N 20:38:53 69° WNW 20:42:57 10° SSW
RESURS DK-1 3.3 20:35:41 10° S 20:39:43 54° ESE 20:43:47 10° NNE
Spot 2 4.5 20:36:27 10° N 20:41:36 74° WNW 20:46:39 10° SSW
Cosmos 1500 Rocket 4.0 20:37:42 10° S 20:41:57 65° E 20:46:14 10° NNE
PSLV R/B 3.7 20:38:55 10° N 20:42:46 60° WNW 20:46:30 10° SSW
ATLAS 3B R/B 4.1 20:37:53 10° NNW 20:44:10 35° NE 20:50:38 10° ESE
FALCON 9 DEB 3.0 20:41:22 10° SW 20:44:33 84° SE 20:47:46 10° NE
Cosmos 1151 Rocket 3.4 20:44:56 10° NNW 20:48:57 42° W 20:52:58 10° SSW
SMAP 3.7 20:44:41 10° NNE 20:49:18 62° E 20:53:54 10° S
SL-4 R/B 4.0 20:48:14 10° NW 20:49:35 11° NNW 20:50:54 10° N
Cosmos 1328 Rocket 3.9 20:48:01 10° NNW 20:52:13 46° W 20:56:26 10° SSW
EO 1 Delta rocket 4.2 20:46:56 10° S 20:52:50 69° W 20:57:44 10° NNW
Cosmos 1782 2.8 20:49:00 10° NNW 20:52:58 64° W 20:56:57 10° S
Cosmos 923 Rocket 4.1 20:48:08 10° NNW 20:53:26 87° ENE 20:58:45 10° SSE
Lacrosse 4 Rocket 2.0 20:49:24 10° NNW 20:53:41 61° ENE 20:58:02 10° SE
NOSS 3-4 (A) 4.0 20:49:32 10° WSW 20:54:46 33° NW 21:00:17 10° NNE
NOSS 3-4 (C) 4.0 20:49:37 10° WSW 20:54:53 33° NW 21:00:26 10° NNE
NOSS 3-2 (C) 4.3 20:50:59 10° NW 20:58:47 62° WSW 21:07:21 10° SSE
PAYLOAD B 4.2 20:53:42 10° N 20:59:13 79° WNW 21:04:42 10° SSW
Cosmos 1461 3.1 20:57:17 10° NNW 21:01:57 72° WSW 21:06:22 10° SSE
